Wetbulb
49.39 49.91 50.01 49.65 49.70 49.91 49.89 50.15 50.49 50.99 51.05 51.07 51.05 50.72 50.41 50.19 50.65 57.09 58.91 59.47 58.57 53.87 52.62 53.46 53.70 52.64 52.82 52.84 49.22 51.53 49.79 50.11 49.61 38.95 39.67 41.95 38.17 42.28 40.51 42.08 39.37 37.68 36.97 33.53 35.85 32.44 29.99 45.98 44.70 39.08 44.95 47.47 46.41 44.38
49.20 49.25 49.71 49.18 49.00 49.18 49.53 49.65 49.81 50.15 50.60 50.55 50.82 50.61 50.82 50.13 50.37 52.13 59.46 58.94 59.33 57.45 54.62 56.62 56.16 56.24 56.35 56.32 53.77 52.88 50.58 50.40 50.70 47.13 43.51 43.06 36.38 37.81 40.42 37.32 45.25 38.48 42.30 40.52 40.13 40.17 47.00 47.45 46.48 49.04 47.95 45.89 45.25 43.21
47.88 48.48 48.93 48.88 48.75 48.70 48.91 49.07 49.24 49.69 50.20 50.21 50.27 51.67 50.90 50.54 50.50 52.52 60.31 60.00 59.98 56.03 54.77 54.51 53.13 55.99 57.46 57.78 59.60 52.16 53.82 53.27 52.42 54.94 48.98 43.80 35.14 44.29 35.30 40.32 44.17 45.12 47.81 43.05 42.02 44.62 45.55 46.31 48.03 48.08 47.48 45.56 44.02 43.44
47.32 47.23 47.68 48.37 48.59 48.48 48.64 48.55 48.60 49.09 49.47 49.66 49.98 50.31 50.76 50.27 50.46 51.55 59.30 58.51 58.50 53.07 40.21 52.36 54.12 54.42 56.37 58.34 57.69 58.09 55.65 55.29 54.96 53.42 42.50 38.40 38.76 48.49 41.73 45.06 43.90 46.18 46.54 43.90 43.41 46.06 46.14 47.64 46.63 46.68 45.50 45.49 44.90 45.60
46.80 46.87 46.87 47.11 47.75 48.53 48.33 48.10 47.99 48.31 48.60 48.71 49.06 49.02 49.92 50.69 50.90 57.60 59.76 58.79 58.68 55.97 46.78 50.86 52.93 53.14 54.90 56.44 56.08 56.17 55.20 53.35 52.05 44.93 38.22 40.31 48.48 47.70 46.28 43.71 43.26 46.84 45.17 42.80 41.20 46.25 45.00 45.05 46.54 46.70 45.51 44.49 44.19 42.32
46.68 46.55 46.53 46.69 46.93 47.34 47.81 47.68 47.90 47.95 47.76 48.04 49.38 49.34 50.15 50.54 50.77 58.86 54.77 59.12 58.59 58.51 51.97 44.53 52.63 50.77 52.85 54.67 54.82 54.35 54.53 54.13 53.16 48.40 41.84 49.07 51.47 47.94 36.41 38.57 44.99 47.59 48.67 49.17 46.42 47.91 46.26 45.30 44.81 46.03 44.56 43.22 42.85 41.97
46.25 46.43 46.46 46.44 46.42 46.66 47.21 47.48 47.34 47.66 48.04 48.57 48.87 49.20 49.42 49.58 57.17 54.79 52.87 54.25 51.58 59.63 50.00 44.02 47.44 48.85 49.80 52.72 53.32 52.99 53.68 52.84 51.66 48.54 46.12 46.89 48.33 47.69 40.40 38.62 44.73 47.24 48.19 47.77 47.77 45.78 40.50 42.77 42.50 44.00 43.20 42.37 42.62 42.51
46.16 46.10 45.82 45.96 46.46 46.37 46.39 47.11 47.36 47.79 47.97 48.21 48.41 48.61 48.91 48.58 50.02 53.63 56.38 51.94 54.15 55.53 52.65 42.39 41.59 44.89 48.94 46.71 44.89 48.88 47.25 47.90 48.94 48.78 44.41 43.90 47.47 45.04 38.57 44.24 46.65 47.46 45.86 44.04 43.62 43.88 43.11 44.20 43.98 42.59 42.66 41.69 39.37 38.81
45.18 45.41 45.48 45.59 45.71 45.87 46.10 46.85 47.39 47.59 47.97 48.17 48.33 48.57 50.71 50.46 49.26 53.55 48.19 51.22 56.99 53.73 46.57 37.13 37.13 36.59 47.83 42.95 43.20 43.27 44.83 39.13 45.60 39.31 41.28 43.56 40.02 37.72 42.62 44.44 45.09 44.51 43.29 40.74 42.86 43.85 43.36 41.24 40.41 39.85 39.14 38.72 37.70 37.60
45.46 45.66 45.48 45.46 45.62 45.62 46.12 46.89 47.21 47.43 47.77 47.79 48.48 45.98 38.76 43.44 47.90 48.81 52.56 49.64 46.02 47.10 47.78 38.76 46.07 39.60 46.06 40.36 37.86 38.95 40.03 37.99 34.78 38.06 38.63 33.51 34.88 42.86 44.71 44.96 45.46 44.73 45.30 44.75 41.11 39.53 39.41 37.82 37.48 37.53 37.70 38.43 37.99 37.06
45.90 45.80 45.64 45.47 46.01 45.82 47.11 46.78 47.19 47.38 47.47 44.79 39.67 36.39 43.59 47.01 45.72 42.81 37.48 38.22 39.98 36.23 39.31 41.75 42.73 40.65 45.08 38.97 36.59 38.58 35.32 35.14 33.51 35.76 35.36 35.67 35.19 41.16 43.99 42.34 43.37 44.16 44.18 43.61 42.71 40.80 38.78 37.80 37.40 37.26 37.41 37.65 36.80 36.47
45.05 45.78 45.98 45.61 45.83 45.69 47.02 46.71 46.96 46.62 45.11 44.05 43.60 45.01 43.69 40.47 36.49 38.04 33.87 33.51 34.40 35.72 35.95 34.90 37.52 41.35 38.63 41.58 35.12 33.10 32.78 33.69 32.60 39.08 33.91 31.33 39.37 41.89 42.15 42.27 42.86 43.32 42.51 40.20 38.95 37.88 38.10 37.96 38.35 37.96 37.36 36.40 36.35 36.04
43.88 44.56 45.68 45.64 45.66 45.71 46.85 45.80 45.35 45.85 46.51 44.00 37.59 34.02 34.23 32.40 31.15 31.51 30.05 32.60 32.42 33.69 34.09 34.19 32.95 34.75 35.41 37.06 32.96 34.05 32.06 33.14 37.52 31.17 30.91 36.97 40.78 40.97 42.54 42.16 41.44 41.66 39.82 37.01 37.23 38.00 38.21 38.02 37.98 36.43 35.76 36.41 35.42 35.47
43.55 44.40 45.59 45.75 45.11 45.97 45.68 45.63 44.82 44.70 43.97 35.19 32.78 31.69 32.42 31.88 32.78 34.04 35.14 34.59 35.50 35.86 34.78 34.23 33.14 33.69 33.87 33.33 34.05 32.24 32.38 34.19 28.99 27.42 30.99 38.83 39.37 40.80 41.99 41.70 40.54 38.90 36.13 35.23 35.74 36.57 36.68 36.88 36.39 36.42 34.41 34.49 33.45 33.41
43.57 44.25 45.55 45.74 44.96 44.68 43.76 44.04 43.84 45.02 40.27 34.74 35.35 30.97 31.69 33.33 34.23 33.51 34.59 35.32 36.13 38.15 37.31 37.42 36.90 37.99 34.23 32.24 33.96 31.40 28.36 27.52 30.00 31.66 36.24 39.19 40.06 39.95 37.98 37.38 36.80 35.34 35.18 35.30 36.57 35.97 35.41 35.50 35.28 35.13 36.54 36.39 36.09 34.23
43.70 44.91 46.22 45.14 44.71 43.79 43.79 43.82 43.11 42.01 37.92 35.15 33.74 32.06 33.33 33.51 32.42 32.60 33.14 32.96 37.06 37.25 38.72 38.58 34.31 32.96 31.66 33.04 29.43 29.67 29.27 27.63 32.32 36.22 39.10 38.21 36.27 36.50 36.62 37.33 36.93 36.89 35.76 35.70 35.66 35.43 35.44 35.35 34.01 35.37 36.42 35.04 33.87 33.33
43.18 44.40 44.79 43.82 42.69 41.54 42.55 41.58 40.48 34.85 35.21 34.62 32.06 35.68 34.59 34.78 33.87 33.14 35.68 35.82 38.64 36.41 33.14 34.67 30.61 30.16 31.06 29.94 28.92 32.53 30.35 34.31 36.75 37.13 37.85 36.93 36.10 36.37 37.81 37.67 35.56 35.94 35.89 35.79 35.64 35.62 36.04 36.49 36.22 34.97 33.30 36.02 36.54 35.82
43.53 45.59 44.45 43.32 44.81 43.12 39.67 41.84 38.52 36.47 31.64 34.46 33.88 32.95 34.33 35.46 34.41 34.78 36.41 36.96 36.46 34.07 33.87 32.22 32.45 29.02 28.78 27.38 29.74 35.24 35.73 37.42 37.74 36.41 36.30 36.48 37.07 37.18 37.66 37.32 37.70 37.20 35.90 35.74 36.02 35.61 35.46 35.11 34.60 35.65 36.34 36.72 36.28 36.07
44.87 46.18 43.99 43.56 43.95 40.01 36.42 36.69 38.63 32.73 33.05 33.87 32.99 34.54 34.14 33.37 33.94 34.86 35.50 35.03 36.40 36.38 34.58 33.21 31.33 29.39 29.98 31.97 34.05 36.16 37.08 36.58 35.30 36.53 37.25 37.49 36.80 35.54 35.32 35.86 35.66 35.47 35.32 35.21 35.54 36.17 36.69 36.82 36.99 37.44 37.28 36.89 36.11 36.01
42.87 42.99 41.54 40.44 42.04 39.57 34.52 34.72 38.24 34.46 33.03 33.42 33.69 33.51 33.14 32.60 32.95 32.90 34.41 35.32 35.61 35.95 33.21 32.11 32.39 34.05 35.62 36.52 37.46 37.55 37.59 37.76 36.38 34.68 34.49 35.80 37.16 36.27 35.85 35.81 35.83 36.29 36.18 36.27 36.79 34.12 36.89 36.99 37.63 37.78 38.03 36.99 35.32 34.13
39.17 39.74 39.30 40.91 40.73 39.09 36.46 35.48 33.94 34.59 33.79 32.77 32.70 34.91 30.48 31.80 30.84 31.63 32.27 35.49 33.91 33.82 31.88 35.14 37.37 38.21 38.50 38.24 38.25 38.24 37.17 36.79 34.87 34.96 34.22 33.95 36.49 36.55 36.13 36.75 37.09 37.07 36.33 36.59 37.23 36.91 36.27 37.67 37.63 38.27 35.82 34.23 34.23 34.78
37.67 38.65 34.37 36.32 35.31 34.88 33.87 35.39 34.51 35.29 34.38 32.44 32.96 35.16 30.59 29.43 29.36 30.05 32.41 30.62 30.96 34.31 36.18 36.63 37.09 37.53 36.97 36.12 36.84 37.12 37.02 36.49 36.38 35.79 33.12 34.14 34.57 35.65 35.94 36.72 36.72 36.79 37.02 37.81 37.29 37.29 38.01 38.07 38.95 38.56 35.49 32.60 34.22 34.96
37.18 36.06 33.49 33.51 31.14 31.85 28.54 35.63 31.61 31.10 29.34 29.15 31.84 29.22 29.28 29.47 30.43 31.74 28.66 32.08 33.45 36.79 37.75 37.34 37.21 37.18 36.34 36.89 36.21 36.30 36.69 35.79 35.62 35.99 36.32 36.57 36.81 37.88 37.51 37.34 38.26 36.81 36.23 36.66 37.85 38.23 37.91 35.98 36.08 33.64 33.51 33.69 33.45 32.78
36.50 32.19 29.88 29.18 30.89 26.57 31.22 28.27 31.29 29.92 30.52 28.99 28.39 25.57 26.25 29.69 28.65 27.91 26.90 30.97 34.28 36.49 34.98 34.56 35.98 35.32 35.89 34.48 34.71 35.33 36.17 37.08 36.40 36.81 37.28 36.48 35.57 36.02 37.26 36.73 37.67 38.77 37.74 37.82 37.22 35.86 35.85 33.51 32.83 33.26 32.96 32.24 32.24 31.66
30.37 27.26 28.96 24.76 28.73 26.52 25.70 25.61 26.13 27.58 25.11 26.18 25.05 25.45 26.26 28.61 26.31 25.29 25.50 31.23 34.46 34.72 34.46 35.57 35.32 35.21 34.10 34.69 35.27 35.81 36.77 36.55 35.39 34.66 37.18 37.63 37.13 36.96 36.15 36.09 36.60 37.13 38.14 34.59 32.60 32.24 32.24 32.78 32.42 32.06 32.09 31.69 30.08 29.76
24.29 26.20 26.44 26.64 26.03 26.23 26.47 23.56 24.31 24.90 25.66 24.30 25.27 27.12 27.68 27.03 23.92 23.90 28.22 32.48 33.73 32.57 31.06 31.93 33.33 33.59 33.74 34.63 33.41 33.65 34.75 35.86 34.54 32.78 34.67 36.53 35.82 34.75 32.74 30.64 32.39 34.34 37.43 35.68 32.78 31.69 31.79 32.28 31.34 30.68 30.68 30.59 30.03 29.85
23.61 24.59 28.03 29.86 29.28 27.66 26.00 26.39 27.66 26.53 23.36 23.03 25.90 24.58 25.18 21.21 22.51 28.02 31.36 29.49 31.06 29.62 31.20 31.80 31.12 30.97 30.49 30.90 31.62 30.70 30.08 29.75 29.41 29.39 30.60 31.11 31.24 31.37 31.20 30.43 29.84 30.56 30.68 31.73 31.69 31.33 30.79 30.74 29.98 29.80 29.97 30.62 30.84 30.64
27.76 28.58 23.47 26.67 27.72 29.90 25.02 25.61 24.58 24.21 26.36 28.94 28.19 23.27 22.11 23.91 25.78 27.39 26.25 26.18 26.90 28.44 29.54 29.35 28.82 27.21 27.56 26.88 27.09 26.95 26.35 26.38 27.26 29.77 31.35 32.67 32.31 26.69 26.45 27.26 28.37 26.97 28.44 29.64 29.40 29.62 29.86 29.93 29.55 29.75 28.81 28.73 29.41 30.10
27.78 29.23 28.21 22.45 24.87 26.56 26.83 26.59 27.49 29.81 32.04 29.84 27.80 27.04 28.50 25.50 23.10 23.31 23.21 23.99 25.92 25.63 24.40 23.46 24.41 25.04 25.92 25.79 26.49 26.10 23.75 22.51 20.50 18.55 19.18 21.19 22.55 23.36 23.85 23.88 24.16 24.76 24.76 25.12 26.08 27.39 28.02 27.98 27.08 26.59 26.77 27.57 27.00 26.95
26.23 30.40 27.30 24.02 22.82 24.30 30.56 32.85 31.94 31.88 32.62 33.38 32.80 29.51 25.66 21.34 19.60 21.68 21.58 21.72 20.55 19.91 20.72 21.37 21.51 21.36 20.55 20.07 20.19 22.41 22.78 20.98 18.84 17.22 15.90 16.10 17.92 20.73 21.21 20.89 20.48 21.06 21.42 22.80 23.42 24.42 26.26 26.97 26.45 26.50 23.98 22.90 21.65 21.57
29.13 28.56 26.35 27.09 26.70 30.89 29.82 28.95 29.70 29.74 30.02 30.66 32.86 30.05 24.76 18.82 18.24 18.28 18.07 19.30 19.53 19.02 18.60 17.99 18.87 19.23 18.00 17.50 17.16 16.67 16.52 19.82 17.80 16.91 16.24 16.32 17.34 17.78 17.64 16.95 18.69 18.64 19.27 20.21 21.08 21.92 21.35 22.05 22.48 21.13 19.35 17.44 16.33 16.03
27.43 26.00 25.54 23.18 26.26 28.52 28.90 27.87 28.75 28.19 29.72 28.22 28.66 25.62 22.07 21.51 16.43 15.56 16.33 17.69 17.39 15.74 14.61 15.51 15.17 15.54 17.57 18.61 18.34 18.64 16.01 17.28 16.58 15.68 14.60 13.04 13.82 14.03 14.00 14.55 15.78 16.00 16.63 17.02 18.91 18.98 17.88 18.21 17.49 16.91 16.56 13.76 12.25 11.69
24.14 24.44 24.24 23.82 24.49 23.88 26.70 25.43 25.62 24.01 25.21 24.61 22.85 21.88 18.66 18.60 12.09 14.74 17.83 17.44 15.57 14.09 13.64 14.45 15.58 16.46 17.56 18.05 17.23 16.79 16.05 16.42 15.85 15.08 13.89 11.72 10.85 10.88 10.92 12.35 10.87 10.46 12.74 15.15 15.86 15.68 14.33 13.74 13.15 12.16 10.63 9.45 7.92 6.50
MSLP
1012.54 1012.82 1013.38 1013.92 1014.35 1014.81 1015.31 1015.75 1016.00 1016.24 1016.36 1016.34 1016.31 1016.28 1016.10 1015.88 1015.49 1015.06 1014.98 1015.02 1014.40 1014.36 1015.07 1015.06 1014.92 1014.83 1014.98 1014.82 1015.74 1016.74 1017.65 1018.37 1019.01 1020.07 1021.09 1021.29 1021.41 1020.68 1020.37 1019.76 1020.25 1020.74 1021.60 1021.98 1021.93 1021.15 1019.62 1018.91 1019.08 1019.80 1019.38 1019.90 1020.94 1021.72
1013.09 1013.23 1013.59 1014.11 1014.52 1014.96 1015.30 1015.69 1015.97 1016.22 1016.45 1016.48 1016.46 1016.41 1016.28 1016.09 1015.78 1015.41 1014.49 1015.11 1014.96 1014.27 1015.54 1015.95 1016.02 1016.02 1015.70 1015.03 1015.16 1016.58 1016.51 1017.14 1017.90 1019.02 1020.89 1021.69 1021.88 1021.52 1020.79 1019.88 1019.11 1019.29 1019.59 1019.92 1020.06 1018.99 1018.37 1018.82 1018.82 1019.40 1019.79 1020.97 1021.80 1022.41
1013.65 1013.92 1014.01 1014.33 1014.78 1015.16 1015.49 1015.78 1015.91 1016.15 1016.51 1016.62 1016.64 1016.72 1016.64 1016.42 1016.10 1015.85 1014.86 1015.22 1014.85 1015.36 1015.99 1016.05 1016.13 1016.46 1016.21 1016.16 1015.98 1016.07 1016.89 1016.83 1017.74 1018.38 1020.41 1021.66 1021.74 1021.30 1020.98 1019.82 1018.91 1018.43 1018.29 1018.72 1019.37 1018.69 1018.61 1018.90 1019.30 1019.99 1020.85 1021.56 1022.18 1022.55
1014.54 1014.60 1014.59 1014.66 1014.92 1015.22 1015.61 1015.83 1016.00 1016.26 1016.59 1016.77 1016.89 1017.01 1016.99 1016.73 1016.40 1016.12 1015.16 1015.67 1015.37 1015.84 1016.23 1016.45 1016.83 1016.59 1016.96 1016.62 1016.34 1016.18 1016.35 1017.64 1018.10 1019.16 1020.68 1021.21 1021.01 1020.08 1020.36 1019.14 1018.48 1018.20 1018.01 1017.99 1018.01 1018.15 1018.32 1018.75 1019.89 1020.54 1021.17 1021.78 1022.06 1021.73
1014.91 1015.32 1015.23 1015.09 1015.16 1015.26 1015.50 1015.76 1016.02 1016.40 1016.64 1016.89 1017.11 1017.22 1017.20 1017.03 1016.67 1015.95 1015.77 1016.04 1016.00 1015.79 1016.09 1016.76 1017.11 1017.28 1017.12 1016.89 1016.71 1016.82 1017.11 1017.70 1018.63 1019.99 1020.76 1020.61 1020.23 1019.94 1020.14 1020.19 1018.45 1017.84 1017.35 1017.59 1017.60 1018.31 1019.19 1019.90 1020.64 1021.07 1021.08 1021.36 1021.35 1021.72
1015.57 1015.87 1015.75 1015.62 1015.55 1015.58 1015.63 1015.73 1015.99 1016.36 1016.70 1016.96 1017.25 1017.37 1017.35 1017.26 1017.01 1016.02 1015.86 1016.16 1016.28 1016.03 1016.40 1017.22 1017.58 1017.43 1017.42 1017.30 1017.26 1017.34 1017.47 1017.79 1018.44 1019.48 1020.18 1019.71 1019.09 1019.74 1020.07 1019.27 1017.90 1017.54 1017.47 1017.38 1017.78 1018.94 1019.84 1020.51 1021.21 1021.47 1021.04 1021.36 1021.61 1021.88
1016.06 1016.27 1016.19 1015.95 1015.89 1015.79 1015.81 1015.78 1015.91 1016.24 1016.60 1016.89 1017.24 1017.44 1017.51 1017.49 1016.87 1016.86 1017.03 1017.10 1017.06 1016.10 1016.67 1017.74 1017.77 1018.33 1018.39 1018.09 1018.27 1018.15 1018.60 1018.47 1019.13 1019.81 1019.94 1019.98 1019.48 1019.88 1019.22 1018.25 1017.47 1017.43 1017.54 1018.09 1019.00 1020.05 1020.77 1021.09 1021.00 1021.20 1021.47 1021.58 1021.67 1021.70
1016.77 1016.65 1016.58 1016.42 1016.19 1016.10 1016.07 1015.95 1015.96 1016.14 1016.44 1016.79 1017.19 1017.60 1017.69 1017.60 1017.79 1017.68 1017.50 1017.46 1017.16 1016.54 1017.30 1018.19 1018.71 1019.14 1018.98 1018.91 1019.44 1019.72 1019.58 1019.88 1019.61 1019.45 1020.34 1020.09 1019.40 1019.44 1018.58 1017.44 1017.09 1017.28 1018.38 1019.24 1019.83 1020.57 1021.28 1021.56 1021.10 1021.23 1021.30 1021.42 1021.64 1021.64
1016.95 1016.94 1016.86 1016.65 1016.52 1016.44 1016.23 1016.07 1015.99 1016.06 1016.30 1016.71 1017.28 1017.74 1017.78 1017.92 1018.04 1017.64 1018.08 1017.66 1017.40 1017.57 1017.74 1018.61 1018.77 1019.08 1019.20 1019.91 1020.43 1020.78 1020.61 1020.71 1020.71 1020.66 1020.85 1020.60 1019.81 1018.79 1017.52 1017.15 1017.36 1018.16 1018.83 1019.69 1020.21 1020.41 1020.66 1021.01 1021.21 1021.29 1021.46 1021.72 1021.94 1022.04
1017.19 1017.13 1017.05 1016.73 1016.57 1016.62 1016.28 1016.09 1015.99 1015.99 1016.29 1016.80 1017.51 1017.72 1017.94 1018.04 1017.95 1018.09 1018.35 1018.00 1017.95 1018.12 1018.43 1018.72 1018.77 1019.24 1019.07 1020.47 1020.93 1021.44 1021.37 1021.10 1021.10 1021.36 1021.42 1020.64 1019.03 1018.24 1017.76 1017.81 1017.90 1018.60 1018.99 1019.60 1019.92 1020.39 1020.95 1021.40 1021.48 1021.73 1021.97 1022.21 1022.37 1022.56
1017.26 1017.15 1017.15 1017.02 1016.79 1016.87 1016.41 1016.04 1015.75 1016.16 1016.55 1016.98 1017.47 1017.95 1018.28 1018.09 1018.22 1018.41 1018.67 1018.86 1019.00 1019.09 1018.92 1018.84 1018.98 1019.33 1020.02 1020.22 1021.06 1021.77 1021.63 1021.58 1021.28 1021.15 1021.07 1019.66 1018.12 1017.34 1017.64 1018.36 1018.65 1019.06 1019.47 1019.90 1020.29 1020.90 1021.42 1021.67 1021.86 1022.07 1022.34 1022.63 1022.94 1023.05
1017.42 1017.36 1017.39 1017.32 1017.07 1017.06 1016.65 1016.31 1016.12 1016.43 1016.93 1017.27 1017.68 1018.20 1018.34 1018.33 1018.46 1018.55 1018.66 1019.29 1018.95 1018.77 1019.20 1019.36 1019.68 1019.85 1020.66 1020.78 1021.19 1022.28 1022.00 1021.85 1020.85 1020.57 1020.36 1018.53 1017.10 1017.41 1017.95 1018.41 1018.88 1019.40 1019.98 1020.60 1021.15 1021.50 1021.83 1022.03 1022.21 1022.49 1022.76 1022.95 1023.15 1023.28
1017.59 1017.54 1017.52 1017.56 1017.31 1017.24 1017.30 1016.94 1017.04 1017.21 1017.20 1017.85 1018.46 1018.88 1018.99 1019.42 1018.98 1018.37 1018.45 1018.50 1018.58 1018.63 1019.12 1019.68 1020.46 1020.72 1021.19 1021.28 1021.49 1021.59 1021.49 1021.28 1021.14 1020.45 1018.90 1017.29 1017.02 1017.76 1018.08 1018.70 1019.34 1019.94 1020.72 1021.47 1021.56 1021.85 1022.17 1022.30 1022.52 1022.95 1023.08 1023.15 1023.29 1023.07
1017.87 1017.75 1017.68 1017.77 1017.56 1017.50 1017.54 1017.58 1017.55 1017.68 1018.10 1018.97 1019.09 1019.24 1019.36 1019.26 1019.08 1018.66 1018.45 1018.30 1018.72 1018.92 1019.35 1019.83 1020.42 1020.80 1021.15 1021.26 1021.39 1021.21 1021.56 1021.11 1020.50 1019.47 1018.19 1017.49 1017.74 1018.01 1018.57 1019.29 1019.97 1020.69 1021.71 1022.03 1022.16 1022.26 1022.35 1022.59 1022.79 1023.01 1023.10 1023.04 1023.04 1022.73
1017.89 1017.83 1017.70 1017.89 1018.06 1018.15 1018.13 1018.13 1018.25 1018.16 1018.67 1019.15 1019.13 1019.38 1019.64 1019.72 1019.68 1019.64 1019.63 1019.34 1019.57 1019.65 1019.66 1019.82 1020.38 1020.41 1020.96 1021.26 1021.19 1021.29 1021.24 1020.33 1019.41 1018.40 1018.19 1018.23 1018.45 1018.85 1019.71 1020.43 1020.93 1021.53 1022.03 1022.18 1022.10 1022.19 1022.31 1022.49 1022.63 1022.60 1022.47 1022.46 1022.39 1022.37
1017.83 1017.82 1017.70 1017.98 1018.30 1018.50 1018.44 1018.43 1018.69 1018.94 1019.32 1019.60 1019.78 1019.91 1020.08 1020.05 1020.27 1020.32 1020.31 1020.36 1020.39 1020.36 1020.13 1020.10 1020.39 1020.56 1020.97 1021.02 1021.06 1020.49 1020.16 1019.37 1018.94 1019.05 1019.17 1019.27 1019.78 1020.17 1020.55 1020.96 1021.43 1021.69 1021.91 1021.94 1021.95 1021.95 1021.97 1022.07 1022.14 1021.97 1021.78 1021.86 1021.82 1021.86
1018.09 1017.65 1017.87 1018.05 1018.42 1018.80 1018.76 1019.03 1019.20 1019.52 1019.73 1019.86 1020.24 1020.24 1020.35 1020.22 1020.48 1020.85 1020.73 1020.92 1020.98 1020.95 1020.60 1020.53 1020.60 1020.84 1021.34 1020.84 1020.53 1020.10 1019.72 1019.55 1019.68 1019.82 1019.84 1020.14 1020.43 1020.70 1020.92 1021.16 1021.51 1021.68 1021.70 1021.66 1021.67 1021.61 1021.55 1021.59 1021.65 1021.62 1021.29 1020.75 1020.67 1020.84
1017.81 1017.69 1018.07 1018.08 1018.19 1018.65 1019.27 1019.06 1019.28 1019.25 1019.64 1019.89 1019.94 1020.51 1020.81 1020.74 1020.78 1021.21 1021.36 1021.34 1021.30 1021.22 1020.97 1020.93 1020.95 1020.81 1020.47 1020.12 1019.76 1019.79 1019.79 1020.03 1020.15 1020.39 1020.42 1020.65 1020.80 1020.96 1021.10 1021.13 1021.17 1021.25 1021.24 1021.15 1021.13 1021.12 1021.09 1021.01 1020.89 1020.44 1019.89 1019.67 1019.90 1019.91
1017.58 1017.66 1018.12 1018.23 1018.30 1018.97 1019.64 1019.84 1019.59 1019.53 1019.92 1020.06 1020.57 1020.91 1021.06 1021.35 1021.57 1021.76 1021.72 1021.61 1021.41 1021.28 1021.04 1021.13 1020.70 1020.08 1019.91 1019.93 1019.91 1019.91 1019.89 1020.08 1020.28 1020.38 1020.42 1020.62 1020.82 1021.02 1021.15 1021.09 1021.07 1020.99 1020.74 1020.56 1020.42 1020.28 1020.06 1019.96 1019.85 1019.59 1019.53 1019.56 1019.35 1019.41
1018.27 1018.24 1018.28 1018.52 1018.41 1018.64 1019.53 1019.82 1019.89 1019.25 1019.48 1020.04 1020.68 1020.91 1021.21 1021.50 1022.01 1022.01 1021.98 1021.90 1021.67 1021.35 1021.09 1020.63 1019.85 1019.70 1019.67 1019.68 1019.85 1019.90 1019.93 1020.30 1020.58 1020.63 1020.54 1020.41 1020.41 1020.63 1020.80 1020.81 1020.59 1020.32 1020.12 1019.88 1019.69 1019.75 1019.65 1019.44 1019.19 1018.97 1018.90 1018.99 1019.28 1019.34
1018.48 1018.97 1018.98 1018.89 1018.96 1019.01 1019.44 1019.56 1019.55 1019.60 1019.82 1019.91 1020.70 1020.48 1021.55 1021.94 1022.24 1022.42 1022.38 1022.19 1021.76 1021.01 1020.17 1019.65 1019.68 1019.82 1019.86 1019.99 1020.17 1020.28 1020.41 1020.62 1020.66 1020.71 1020.60 1020.40 1020.37 1020.35 1020.28 1020.16 1020.08 1019.94 1019.78 1019.58 1019.56 1019.38 1019.24 1018.96 1018.72 1018.60 1018.88 1019.13 1019.24 1019.17
1018.85 1019.18 1019.65 1019.69 1019.68 1020.02 1020.07 1020.31 1019.75 1020.11 1019.95 1020.42 1020.65 1020.79 1021.56 1022.06 1022.35 1022.50 1022.48 1022.03 1021.15 1020.05 1019.52 1019.29 1019.23 1019.32 1019.56 1019.86 1019.97 1020.18 1020.38 1020.55 1020.57 1020.58 1020.73 1020.49 1020.24 1019.89 1019.76 1019.77 1019.74 1019.60 1019.50 1019.39 1019.14 1018.86 1018.68 1018.54 1018.42 1018.52 1018.78 1018.87 1018.86 1018.57
1018.90 1019.43 1019.67 1019.82 1020.17 1020.42 1020.97 1020.59 1020.25 1020.24 1020.26 1020.73 1021.00 1021.13 1021.64 1022.06 1022.38 1022.68 1022.00 1021.20 1020.31 1019.55 1019.38 1019.37 1019.49 1019.79 1019.90 1019.88 1020.02 1020.15 1020.25 1020.27 1020.11 1019.92 1019.96 1019.97 1019.84 1019.75 1019.79 1019.69 1019.65 1019.47 1019.23 1018.88 1018.79 1018.45 1018.21 1018.27 1018.39 1018.61 1018.65 1018.54 1018.32 1018.03
1018.87 1019.50 1019.73 1019.88 1019.96 1020.52 1020.87 1020.82 1020.69 1020.62 1020.82 1020.84 1020.98 1021.37 1021.79 1022.12 1022.69 1022.19 1021.36 1020.58 1019.88 1019.76 1019.98 1019.92 1019.91 1019.70 1019.84 1020.16 1019.96 1019.82 1019.87 1019.82 1019.88 1019.67 1019.80 1019.84 1019.61 1019.34 1019.22 1019.17 1019.12 1019.03 1018.88 1018.71 1018.69 1018.66 1018.48 1018.36 1018.42 1018.42 1018.28 1018.09 1017.85 1017.68
1018.74 1020.14 1019.97 1019.97 1020.03 1020.23 1020.47 1020.75 1020.78 1020.72 1020.80 1021.17 1021.43 1021.68 1022.16 1022.59 1022.17 1021.58 1020.92 1020.15 1020.29 1020.52 1020.51 1020.32 1020.32 1020.20 1020.10 1020.14 1020.15 1020.17 1020.25 1020.34 1020.19 1019.93 1019.66 1019.57 1019.39 1019.33 1019.17 1018.98 1018.80 1018.70 1018.57 1018.59 1018.67 1018.61 1018.38 1018.21 1018.20 1018.14 1017.98 1017.77 1017.58 1017.37
1018.77 1019.65 1019.49 1019.61 1020.07 1019.92 1020.24 1020.44 1020.60 1020.66 1020.89 1021.19 1021.50 1022.07 1022.42 1022.24 1021.91 1021.04 1020.52 1020.84 1021.25 1021.81 1022.11 1022.01 1021.66 1021.14 1020.92 1020.87 1021.01 1021.02 1021.05 1021.28 1021.20 1020.80 1020.22 1019.98 1019.80 1019.62 1019.45 1019.29 1018.89 1018.39 1018.35 1018.42 1018.58 1018.41 1018.19 1018.04 1017.99 1017.89 1017.66 1017.48 1017.30 1017.16
1018.49 1019.19 1019.56 1019.88 1019.70 1020.00 1020.44 1020.80 1020.81 1020.75 1020.71 1020.72 1021.08 1021.86 1022.14 1021.88 1021.30 1020.95 1021.83 1022.85 1022.57 1023.43 1023.32 1023.17 1023.08 1022.86 1022.77 1022.58 1022.60 1022.82 1022.86 1022.73 1022.49 1022.09 1021.58 1021.12 1020.74 1020.57 1020.29 1019.80 1019.43 1019.37 1019.33 1019.11 1018.82 1018.49 1018.18 1017.98 1017.89 1017.68 1017.41 1017.29 1017.16 1016.98
1019.02 1019.36 1019.63 1020.15 1019.99 1020.02 1020.08 1020.24 1020.37 1020.26 1020.24 1020.36 1020.79 1021.17 1021.42 1021.64 1022.09 1023.18 1023.95 1024.64 1024.71 1024.47 1024.18 1024.19 1024.22 1024.43 1024.10 1023.94 1023.83 1023.57 1023.45 1023.33 1022.79 1021.98 1021.16 1020.40 1020.53 1021.24 1021.33 1021.16 1020.87 1020.61 1020.12 1019.66 1019.31 1018.92 1018.49 1018.18 1017.92 1017.63 1017.49 1017.29 1017.10 1017.02
1019.36 1019.79 1020.04 1020.31 1020.26 1020.25 1020.15 1020.05 1020.01 1019.91 1019.82 1020.24 1020.48 1020.74 1021.60 1023.26 1024.85 1025.24 1025.62 1025.76 1025.55 1025.32 1025.17 1025.19 1025.15 1025.24 1024.82 1024.68 1024.30 1024.31 1024.51 1024.26 1023.76 1023.09 1022.56 1022.05 1022.01 1022.04 1022.46 1022.21 1021.79 1021.33 1020.92 1020.33 1019.78 1019.33 1018.92 1018.52 1018.31 1018.15 1017.90 1017.63 1017.61 1017.67
1020.19 1020.26 1020.23 1020.57 1020.45 1020.18 1020.22 1020.22 1020.52 1020.71 1020.52 1020.61 1020.85 1021.46 1022.81 1024.86 1026.46 1026.89 1026.70 1026.57 1026.48 1026.46 1026.48 1026.38 1026.26 1026.01 1025.73 1025.55 1025.27 1025.08 1025.32 1025.56 1025.59 1025.30 1024.73 1024.26 1023.95 1023.67 1023.27 1022.93 1022.57 1022.10 1021.64 1020.98 1020.26 1019.59 1019.01 1018.66 1018.42 1018.18 1018.28 1018.33 1018.50 1018.46
1020.64 1020.67 1020.57 1020.56 1020.50 1020.60 1020.91 1021.23 1021.25 1021.34 1021.33 1021.15 1021.25 1021.88 1023.19 1025.32 1026.94 1027.90 1027.93 1027.74 1027.63 1027.59 1027.42 1027.24 1027.01 1026.98 1026.84 1026.59 1026.43 1026.21 1025.98 1026.05 1026.31 1026.30 1026.24 1025.82 1025.19 1024.69 1024.32 1023.98 1023.41 1022.91 1022.26 1021.53 1020.79 1020.14 1019.75 1019.29 1019.01 1018.98 1019.19 1019.45 1019.64 1019.71
1021.05 1020.98 1021.03 1021.04 1020.96 1021.37 1021.53 1021.50 1021.25 1021.28 1021.10 1021.44 1021.55 1022.73 1023.96 1024.90 1026.40 1028.09 1029.05 1028.61 1028.29 1028.31 1028.50 1028.35 1028.06 1027.81 1027.75 1027.54 1027.47 1027.31 1027.40 1027.00 1026.79 1026.75 1026.55 1026.47 1026.02 1025.61 1025.19 1024.58 1023.93 1023.45 1022.81 1022.14 1021.38 1020.89 1020.58 1020.21 1020.08 1020.15 1020.20 1020.63 1020.92 1021.04
1021.83 1021.90 1021.88 1021.83 1021.59 1021.47 1021.76 1021.75 1021.22 1021.14 1021.39 1021.61 1022.55 1023.54 1024.71 1025.53 1027.12 1028.58 1029.33 1029.50 1029.39 1029.36 1029.29 1029.16 1028.89 1028.49 1028.06 1027.81 1027.67 1027.65 1027.55 1027.34 1027.22 1027.08 1026.96 1026.93 1026.62 1026.20 1025.71 1025.01 1024.78 1024.27 1023.48 1022.64 1022.06 1021.69 1021.46 1021.32 1021.35 1021.54 1021.80 1021.96 1022.23 1022.45
Wind_Speed
10 11 11 10 10 10 8 7 6 5 4 3 4 6 8 9 10 5 3 4 4 3 5 2 2 7 4 6 5 8 6 2 3 3 3 3 1 4 3 2 5 7 6 5 4 4 7 4 4 3 9 11 6 4
10 10 9 8 7 7 7 8 6 5 3 2 2 5 7 9 11 7 2 2 4 2 5 3 3 4 5 5 4 9 1 6 6 4 3 2 3 0 0 3 4 5 7 4 8 6 9 7 8 10 3 5 6 2
14 10 8 6 6 5 6 6 7 6 4 3 1 3 6 7 9 8 2 2 0 3 3 4 4 4 2 4 4 4 2 3 5 4 5 3 3 6 5 6 7 6 10 7 8 7 13 8 9 8 6 2 4 5
13 12 11 8 5 5 6 5 6 6 6 4 2 1 4 6 7 6 1 2 2 4 5 4 1 3 3 1 0 3 8 5 7 4 3 4 3 8 5 7 8 8 8 10 14 16 14 10 7 4 2 3 5 8
13 11 11 11 9 3 5 6 6 6 7 6 3 1 2 4 7 2 2 3 3 4 3 3 2 2 1 2 3 4 9 7 4 3 2 4 3 2 2 2 8 9 14 10 10 7 5 6 5 5 5 5 3 5
11 10 11 11 10 9 1 6 7 7 8 8 6 4 2 5 8 4 4 3 3 4 3 3 3 3 1 3 5 7 7 4 4 5 4 4 6 5 5 5 6 7 9 12 10 1 3 3 2 6 3 2 4 7
11 10 10 11 10 10 9 1 7 9 9 9 7 7 4 3 5 2 3 4 4 3 2 2 3 3 1 4 2 3 2 2 3 3 5 4 6 4 3 8 8 9 8 3 2 6 3 6 4 3 2 3 4 9
9 10 10 11 10 10 9 7 3 9 10 11 8 5 4 7 5 3 3 2 6 3 2 3 2 2 4 3 3 2 2 1 4 2 2 3 1 1 6 9 11 4 5 4 6 5 4 6 4 4 3 7 10 12
8 9 10 10 10 10 9 7 2 7 11 12 11 11 3 1 2 1 3 0 3 3 2 3 6 4 5 2 3 2 2 2 1 1 2 3 4 8 8 9 8 8 6 8 7 8 8 3 2 4 7 9 12 12
6 8 10 10 11 12 9 7 6 6 9 15 5 3 2 3 7 8 2 1 3 2 1 4 3 4 4 3 2 3 0 3 3 2 2 3 4 8 4 4 4 7 9 9 9 7 3 3 5 7 8 9 11 12
6 8 9 10 10 12 7 8 4 11 11 2 2 2 2 3 2 1 3 3 2 2 4 2 4 5 2 3 4 1 2 1 3 3 3 3 4 9 10 7 6 8 9 7 4 5 1 3 6 8 9 9 9 10
8 8 9 10 10 11 6 8 6 3 2 5 4 3 2 2 3 3 3 2 4 5 3 3 2 3 3 1 3 2 3 2 3 5 3 4 4 7 10 11 10 9 8 7 3 1 4 6 7 8 8 10 10 8
7 8 8 10 10 10 3 12 13 9 3 4 5 4 2 1 2 6 10 4 4 4 4 3 3 2 2 2 3 3 5 2 1 2 4 4 8 7 10 11 10 9 7 2 2 4 7 9 8 7 8 9 7 10
2 5 6 8 10 7 6 9 9 8 4 2 2 3 2 2 2 3 3 3 3 3 5 4 3 2 2 2 2 3 3 2 4 4 5 1 6 8 9 7 8 8 6 1 6 8 7 5 7 6 6 7 6 9
1 4 5 3 9 9 10 8 5 2 2 2 1 3 3 2 3 3 3 2 2 3 2 4 3 2 3 2 1 3 4 4 4 2 3 2 6 7 7 6 6 2 2 4 7 7 5 6 8 9 7 7 8 7
3 2 4 7 8 5 5 5 4 2 2 2 2 3 1 1 2 2 3 3 3 2 2 2 2 2 2 1 3 3 3 4 2 2 1 5 5 5 6 5 4 4 6 9 10 10 9 6 7 11 9 7 8 8
3 1 6 12 13 10 5 2 1 3 3 3 2 2 2 3 3 2 0 2 1 1 1 2 2 3 2 2 3 2 3 2 2 3 3 5 4 2 4 6 4 6 9 10 11 10 10 8 6 7 10 11 7 7
3 1 10 13 7 4 3 3 2 1 3 2 3 3 1 1 4 2 1 2 2 1 1 2 3 3 3 3 2 1 2 2 3 3 3 2 2 4 6 9 10 11 12 10 7 9 9 8 9 9 11 10 8 8
3 1 10 8 3 4 2 2 2 2 3 3 3 2 2 3 3 3 2 1 2 1 3 1 2 3 2 2 1 2 3 2 3 3 3 5 6 7 7 9 9 11 11 11 10 9 9 12 10 9 8 7 8 8
8 6 11 5 3 3 3 2 3 1 3 3 3 3 3 3 2 2 1 0 1 2 3 3 2 1 1 1 2 2 2 2 3 6 7 6 4 5 8 8 8 10 9 11 10 8 9 9 9 8 7 7 7 9
7 3 8 5 1 4 2 1 3 3 3 2 3 3 3 2 2 2 2 0 2 2 3 4 3 4 2 1 1 2 4 5 6 6 7 7 6 7 7 7 8 7 8 7 7 9 7 8 9 7 3 4 5 7
3 8 3 3 3 2 3 3 2 2 1 3 4 2 3 2 2 2 1 3 3 5 4 4 4 4 4 5 5 5 5 6 7 6 6 6 7 5 5 6 7 7 8 7 9 8 8 8 7 4 4 6 7 7
10 2 3 2 4 2 2 2 2 1 2 3 3 3 2 2 1 1 2 3 4 4 5 5 3 4 5 4 4 6 6 7 7 7 5 4 5 5 6 7 7 7 8 10 9 8 8 6 5 3 6 6 7 6
4 4 3 3 2 4 3 2 1 3 2 2 3 3 3 1 1 1 3 3 3 0 2 3 3 3 4 4 4 3 4 4 6 5 5 6 7 8 8 8 7 6 8 8 7 8 7 5 4 6 6 7 6 7
4 3 2 5 2 4 4 4 3 2 3 3 3 2 2 2 3 3 3 1 2 4 4 3 1 0 2 2 3 4 4 4 7 9 7 8 8 8 9 9 8 8 7 5 6 7 6 5 5 5 6 7 9 9
4 3 2 3 3 3 4 5 4 4 3 4 4 3 2 3 4 4 2 4 3 6 6 5 6 4 4 6 8 8 8 8 8 9 10 9 9 8 8 11 10 8 5 3 4 6 7 6 5 8 9 9 8 8
4 3 3 3 3 5 4 3 3 3 5 5 4 6 5 4 5 2 5 6 4 5 6 6 6 6 6 7 8 8 7 8 7 8 9 9 9 8 8 8 10 6 7 7 6 7 8 7 8 9 8 7 7 7
4 3 5 4 3 1 4 3 5 5 4 3 5 5 4 4 2 4 5 5 5 5 4 4 5 6 7 7 7 7 7 9 10 10 8 7 4 8 9 8 8 12 8 8 8 8 8 8 8 8 8 8 7 5
3 3 4 3 3 2 1 3 3 3 2 4 3 3 2 5 3 4 4 5 5 5 5 6 6 7 6 6 6 5 7 8 11 14 14 9 9 8 9 9 9 9 8 9 11 10 10 7 7 7 7 6 5 5
3 0 2 3 2 2 1 1 1 2 2 2 2 3 4 4 4 4 4 5 6 6 6 6 5 7 7 8 7 7 6 7 8 8 8 9 10 10 10 10 10 10 9 10 10 10 9 7 6 4 5 5 5 4
1 1 2 1 2 1 2 2 1 1 2 2 1 3 4 5 4 5 7 5 4 5 6 6 6 6 7 7 7 8 7 6 9 10 9 8 9 10 10 11 10 10 10 10 9 8 8 7 5 5 5 5 6 6
1 0 1 3 2 2 1 1 1 2 2 3 3 3 4 3 3 3 4 5 5 5 6 7 7 7 7 5 5 5 6 7 8 9 11 10 10 10 10 10 9 10 10 10 8 7 7 7 5 6 4 6 6 7
2 2 2 2 2 2 1 3 3 2 3 2 2 2 3 4 4 3 2 4 4 5 6 7 7 7 8 7 5 6 8 8 10 11 10 12 12 12 9 7 8 10 11 9 7 6 7 8 6 6 6 6 6 7
Wind_Direction
74 113 142 149 154 157 156 160 164 158 137 105 55 29 16 7 359 325 74 17 322 72 126 177 141 151 162 187 159 125 141 148 120 115 165 202 192 202 217 264 178 188 188 199 212 254 270 154 210 263 337 323 2 310
70 83 108 130 139 153 163 167 171 178 171 136 58 25 19 8 359 340 131 57 327 20 74 37 55 13 359 2 128 179 22 147 170 131 168 154 183 62 283 239 172 250 206 240 192 246 304 225 240 256 295 346 349 343
51 59 77 108 146 152 170 181 175 174 185 177 142 19 11 8 358 344 74 41 151 83 116 183 153 83 121 20 347 159 226 133 176 22 140 162 191 176 177 225 262 275 259 230 277 258 296 312 316 63 79 108 158 204
57 48 57 71 118 164 178 184 182 174 172 185 181 74 4 4 352 325 360 36 329 72 120 138 88 155 349 268 225 343 108 92 110 138 123 146 187 203 210 261 257 248 279 259 266 288 301 287 73 90 177 246 244 257
58 49 46 50 50 74 192 190 183 178 164 175 169 160 321 336 336 338 66 51 15 301 146 134 123 89 3 250 174 146 151 153 143 120 127 196 231 217 133 303 255 252 260 256 262 310 287 331 27 306 265 218 274 318
59 45 40 42 44 40 23 203 194 182 174 176 175 188 237 315 325 233 196 126 29 324 111 145 82 151 156 197 185 188 183 196 217 150 202 250 191 212 187 220 261 286 292 285 299 77 206 112 289 248 308 2 317 322
49 45 33 33 28 30 23 300 195 185 181 169 187 199 202 313 292 303 360 30 340 289 92 101 198 90 305 140 112 198 134 209 200 213 199 205 204 219 191 237 249 267 291 338 34 125 80 185 202 164 273 303 280 310
43 34 26 22 18 15 13 8 227 196 180 170 177 176 146 105 111 232 77 16 317 104 42 160 166 199 208 157 167 326 129 254 216 265 95 220 221 357 248 246 253 235 141 129 123 92 70 206 199 215 276 329 320 314
45 28 18 16 14 5 356 349 329 204 183 170 150 153 105 148 166 127 141 40 38 329 202 161 163 190 159 85 65 114 174 197 83 243 211 235 165 218 237 253 192 178 190 158 168 176 168 193 289 327 331 322 317 317
42 26 16 9 3 348 342 342 313 194 181 141 137 176 204 211 123 151 74 115 6 353 180 205 140 154 199 166 147 125 132 218 214 188 136 223 251 275 263 249 194 185 193 173 167 173 179 269 320 320 316 317 318 327
40 24 10 2 7 348 6 23 113 114 112 70 101 59 321 97 103 11 139 160 149 251 196 172 181 144 199 152 158 352 161 156 228 150 228 225 244 214 179 167 157 155 155 160 143 102 112 310 305 304 306 320 313 309
52 27 8 358 6 358 357 9 65 58 75 99 97 108 70 45 63 160 176 147 202 207 158 147 123 102 105 110 103 183 178 190 231 146 222 246 195 131 166 161 154 150 148 137 123 272 308 303 310 308 302 303 305 314
54 40 16 356 2 1 35 74 62 97 87 43 42 46 35 49 213 187 184 187 187 158 155 152 101 112 125 78 102 172 189 181 285 199 232 235 117 159 160 159 154 150 113 81 278 305 312 306 320 299 291 290 286 290
27 45 40 7 16 38 88 93 50 47 74 62 100 103 325 143 15 349 358 70 54 76 104 106 92 102 138 103 126 178 67 207 215 235 226 171 163 162 155 149 165 161 138 250 303 302 294 279 274 268 249 264 269 278
354 34 83 63 62 89 84 83 55 36 59 69 316 77 61 45 34 18 341 50 35 109 120 107 82 62 73 109 31 115 162 224 234 251 42 82 142 138 130 153 154 150 215 266 294 291 257 259 266 275 274 266 273 270
314 145 146 122 110 71 91 73 36 52 58 71 38 115 85 84 61 29 32 42 13 28 43 55 92 102 101 71 189 203 210 223 127 85 146 126 129 137 165 184 209 271 300 296 290 285 279 254 254 280 297 286 268 259
257 249 147 125 114 87 48 98 68 67 122 164 111 38 73 69 83 86 85 107 121 345 81 126 158 81 114 200 218 216 232 24 109 149 107 89 128 174 236 228 233 271 286 290 286 281 276 279 282 278 281 287 275 285
257 192 158 151 151 94 25 14 85 21 89 115 146 130 91 45 112 99 109 119 127 109 145 53 124 189 211 199 197 157 180 124 123 126 124 136 252 279 277 274 278 285 287 285 278 275 278 264 265 267 271 290 301 277
336 163 170 156 100 94 78 22 319 87 67 92 92 119 101 100 57 48 52 65 64 21 116 196 221 218 206 214 248 143 128 173 199 232 279 286 286 289 284 277 278 280 281 281 280 278 288 294 283 284 292 294 291 304
76 79 113 83 310 133 116 114 245 145 138 107 119 142 82 67 65 52 75 19 182 189 182 217 237 192 216 131 191 208 183 232 289 289 288 285 268 253 271 284 286 295 294 289 284 271 273 270 262 261 272 298 308 301
71 81 34 29 54 44 73 139 75 35 121 105 124 143 83 112 116 136 150 68 254 233 238 222 228 236 212 248 276 284 274 273 277 276 281 287 296 306 296 289 286 289 289 291 286 283 276 264 273 275 273 265 269 271
103 81 85 343 83 40 78 22 39 83 78 102 145 155 119 152 144 154 110 197 223 230 233 257 258 257 244 236 253 237 262 272 263 268 264 262 266 273 285 297 297 285 278 272 274 272 268 275 277 269 268 272 264 276
107 99 82 80 101 82 76 282 92 21 123 143 166 140 149 150 92 224 232 241 253 269 260 270 282 290 266 281 281 269 258 255 264 272 269 259 275 281 278 280 278 268 272 281 290 291 282 261 277 271 268 272 283 288
79 58 69 89 102 107 135 105 126 105 109 174 168 162 148 126 163 223 255 239 253 314 250 240 231 237 196 214 249 311 323 287 271 260 252 266 272 277 291 300 299 288 277 287 296 298 294 291 274 272 276 280 285 294
93 71 217 95 91 123 119 128 142 153 145 157 168 164 152 197 212 212 233 234 7 5 2 12 296 348 336 358 328 338 352 296 293 288 282 277 285 285 281 286 297 301 306 281 274 267 264 263 264 273 294 295 296 301
107 60 39 102 137 133 139 138 164 163 139 167 179 100 179 217 235 239 185 71 62 62 37 17 1 353 333 356 340 336 342 343 323 299 294 305 312 304 297 288 288 290 327 333 290 279 283 284 289 294 292 293 291 301
94 85 81 13 81 112 110 82 107 163 179 180 164 175 191 221 229 147 101 26 43 24 353 17 353 354 341 331 341 341 332 325 315 309 311 299 291 285 283 296 305 350 343 317 302 294 293 298 296 294 296 305 299 295
90 125 137 141 102 27 121 146 171 187 177 172 161 185 211 221 34 54 43 24 3 341 349 9 21 359 337 341 333 333 339 332 323 311 308 293 22 46 16 355 351 342 333 334 330 319 312 312 310 311 310 306 313 6
79 109 120 101 91 98 189 181 203 195 130 169 200 210 166 64 41 22 21 1 358 7 13 2 4 352 356 348 355 16 18 6 357 358 356 349 352 2 358 348 343 342 338 329 325 325 321 324 331 320 319 322 3 1
94 288 103 140 163 195 77 177 32 52 251 347 353 129 120 104 59 25 22 25 23 21 11 8 4 6 8 8 1 16 58 35 21 3 342 342 337 336 337 340 336 335 330 325 323 322 327 332 329 335 3 2 359 2
72 111 90 166 274 56 45 5 286 229 260 260 25 280 71 119 120 52 28 23 26 32 17 15 9 25 6 7 2 352 347 15 4 358 353 333 332 333 337 331 327 326 322 323 324 328 341 329 353 4 17 25 30 27
54 177 261 226 249 75 347 291 287 258 202 232 174 103 148 156 99 82 21 353 24 23 19 358 350 344 340 343 343 350 338 329 343 346 349 339 334 333 329 324 326 325 324 322 327 339 350 358 17 8 19 32 27 26
197 228 235 257 236 226 132 273 220 247 203 181 103 71 38 21 88 85 75 27 16 15 358 350 336 323 313 345 333 333 339 337 341 333 344 338 330 331 324 329 334 325 321 322 335 352 7 14 23 25 31 31 34 30